Overview Statistics Trail Chart Weather Telemetry Raw packets
 

This is the latest recevied weather packets stored in our database for station/object DK6GC-10. If no packets are shown the sender has not sent any weather packets the latest 10 day(s).

<< 1 2 3 4 5 >>
Time Temp. Humidity Pressure Rain* Wind** Luminosity Snow
1788687925 23.33° C 51% 1027.4 hPa - - - -
1788687035 21.67° C 55% 1027.2 hPa - - - -
1788686125 21.11° C 56% 1027.4 hPa - - - -
1788685246 20.56° C 58% 1027.6 hPa - - - -
1788684324 20.56° C 61% 1027.6 hPa - - - -
1788683432 19.44° C 60% 1027.9 hPa - - - -
1788682524 18.89° C 65% 1027.8 hPa - - - -
1788681642 17.78° C 64% 1027.8 hPa - - - -
1788680724 17.22° C 66% 1027.7 hPa - - - -
1788679823 17.22° C 70% 1027.4 hPa - - - -
1788678923 16.11° C 72% 1027.5 hPa - - - -
1788678022 15.56° C 73% 1027.6 hPa - - - -
1788677122 14.44° C 76% 1027.6 hPa - - - -
1788676222 13.89° C 79% 1027.6 hPa - - - -
1788675321 13.89° C 79% 1027.6 hPa - - - -
1788674425 15.56° C 70% 1027.7 hPa - - - -
1788673525 11.67° C 88% 1027.6 hPa - - - -
1788672625 11.11° C 89% 1027.7 hPa - - - -
1788671725 11.11° C 87% 1027.7 hPa - - - -
1788670824 11.11° C 87% 1027.5 hPa - - - -
1788669924 11.11° C 86% 1027.4 hPa - - - -
1788669024 11.67° C 84% 1027.2 hPa - - - -
1788668124 12.22° C 82% 1027.1 hPa - - - -
1788667244 13.33° C 73% 1027.2 hPa - - - -
1788666323 12.78° C 75% 1027.6 hPa - - - -

* Rain since midnight (hover to see other rain measurements)
** Current wind speed in m/s (hover to see current wind gust speed)